User: anonymous   Login
Location: Unspecified
(0.0000°N, 0.0000°E)
Time: 09:18:32
(UTC+00:00)
Language:

COSMOS 2490 - Orbit

View from above orbital plane
View from above orbital plane
View from above satellite
View from above satellite

Ground track
Ground track

The orbit data is extracted from the following two-line orbital elements,

1 39485U 13076C   17268.90254753 +.00000010 +00000-0 +00000-0 0  9996
2 39485 082.4881 354.2806 0021049 213.0903 146.8861 12.42885938170275
Epoch (UTC): 25 September 2017 21:39:40
Eccentricity: 0.0021049
inclination: 82.4881°
perigee height: 1478 km
apogee height: 1511 km
right ascension of ascending node: 354.2806°
argument of perigee: 213.0903°
revolutions per day: 12.42885938
mean anomaly at epoch: 146.8861°
orbit number at epoch: 17027

The dashed part of the orbit path shows where the satellite is in the earth's shadow,  

DLR